Overview Statistics Trail Chart Weather Telemetry Raw packets
 

This is the latest recevied weather packets stored in our database for station/object KC9DRE. If no packets are shown the sender has not sent any weather packets the latest 10 day(s).

<< 108 109 110 111 112 113 >>
Time Temp. Humidity Pressure Rain* Wind** Luminosity Snow
1777055632 28.33° C 47% 1008.5 hPa 0 mm - 709 W/m² -
1777055327 28.33° C 48% 1008.7 hPa 0 mm - 880 W/m² -
1777055026 28.33° C 47% 1008.6 hPa 0 mm - 683 W/m² -
1777054722 27.22° C 49% 1008.7 hPa 0 mm - 898 W/m² -
1777054419 27.78° C 48% 1009 hPa 0 mm - 615 W/m² -
1777054118 27.78° C 49% 1009 hPa 0 mm - 534 W/m² -
1777053813 27.22° C 49% 1009.1 hPa 0 mm - 587 W/m² -
1777053512 27.78° C 49% 1009 hPa 0 mm - 503 W/m² -
1777053209 27.78° C 49% 1009.1 hPa 0 mm - 741 W/m² -
1777052905 27.22° C 49% 1009.3 hPa 0 mm - 832 W/m² -
1777052600 27.78° C 49% 1009.2 hPa 0 mm - 617 W/m² -
1777052296 27.78° C 50% 1009.2 hPa 0 mm - 419 W/m² -
1777051992 27.78° C 49% 1009.5 hPa 0 mm - 575 W/m² -
1777051690 27.78° C 49% 1009.6 hPa 0 mm - 877 W/m² -
1777051386 27.78° C 50% 1009.6 hPa 0 mm - 597 W/m² -
1777051081 27.78° C 50% 1009.6 hPa 0 mm - 705 W/m² -
1777050777 27.78° C 50% 1009.8 hPa 0 mm - 755 W/m² -
1777050473 27.78° C 48% 1009.8 hPa 0 mm - 847 W/m² -
1777050168 27.78° C 50% 1009.8 hPa 0 mm - 840 W/m² -
1777049868 27.22° C 50% 1009.8 hPa 0 mm - 788 W/m² -
1777049563 27.78° C 50% 1009.9 hPa 0 mm - 797 W/m² -
1777049262 27.22° C 51% 1009.9 hPa 0 mm - 819 W/m² -
1777048958 27.22° C 50% 1010.2 hPa 0 mm - 819 W/m² -
1777048658 27.22° C 51% 1010.1 hPa 0 mm - 814 W/m² -
1777048353 27.22° C 51% 1010.3 hPa 0 mm - 790 W/m² -

* Rain latest hour (hover to see other rain measurements)
** Current wind speed in m/s (hover to see current wind gust speed)